| time (UTC) | temp C | wind direction | speed KPH | gust KPH | rain 1hr cm | rain 24hr cm | rain mn cm | humidity % | barometer mb |
| 20260504033402 | 8 | 341 | 0.0 | 3.2 | 0.00 | 0.00 | 0.00 | 96 | 1017.0 |
| 20260504032905 | 8 | 341 | 1.6 | 3.2 | 0.00 | 0.00 | 0.00 | 95 | 1017.0 |
| 20260504032405 | 8 | 341 | 0.0 | 0.0 | 0.00 | 0.00 | 0.00 | 96 | 1017.0 |
| 20260504031905 | 8 | 341 | 0.0 | 0.0 | 0.00 | 0.00 | 0.00 | 96 | 1017.0 |
| 20260504031402 | 8 | 341 | 0.0 | 0.0 | 0.00 | 0.00 | 0.00 | 96 | 1017.0 |
| 20260504030905 | 8 | 341 | 0.0 | 0.0 | 0.00 | 0.00 | 0.00 | 96 | 1017.0 |
| 20260504030402 | 8 | 341 | 0.0 | 0.0 | 0.00 | 0.00 | 0.00 | 95 | 1017.0 |
| 20260504025902 | 8 | 341 | 0.0 | 0.0 | 0.00 | 0.00 | 0.00 | 95 | 1017.0 |
| 20260504025405 | 8 | 341 | 0.0 | 0.0 | 0.00 | 0.00 | 0.00 | 95 | 1017.0 |
| 20260504024905 | 8 | 341 | 0.0 | 0.0 | 0.00 | 0.00 | 0.00 | 95 | 1017.0 |
| 20260504024402 | 8 | 341 | 0.0 | 0.0 | 0.00 | 0.00 | 0.00 | 95 | 1017.0 |
| 20260504023902 | 8 | 341 | 0.0 | 0.0 | 0.00 | 0.00 | 0.00 | 95 | 1017.0 |
| 20260504023402 | 9 | 341 | 0.0 | 0.0 | 0.00 | 0.00 | 0.00 | 95 | 1017.0 |
| 20260504022905 | 9 | 341 | 0.0 | 1.6 | 0.00 | 0.00 | 0.00 | 95 | 1017.1 |
| 20260504022405 | 9 | 341 | 1.6 | 3.2 | 0.00 | 0.00 | 0.00 | 95 | 1017.1 |
| 20260504021902 | 8 | 341 | 1.6 | 3.2 | 0.00 | 0.00 | 0.00 | 95 | 1017.1 |
| 20260504021402 | 8 | 341 | 3.2 | 4.8 | 0.00 | 0.00 | 0.00 | 95 | 1017.1 |
| 20260504020901 | 8 | 28 | 0.0 | 0.0 | 0.00 | 0.00 | 0.00 | 95 | 1017.1 |
| 20260504020401 | 9 | 29 | 0.0 | 0.0 | 0.00 | 0.00 | 0.00 | 95 | 1017.1 |
| 20260504015901 | 9 | 29 | 0.0 | 0.0 | 0.00 | 0.00 | 0.00 | 95 | 1017.0 |
| 20260504015401 | 9 | 29 | 0.0 | 4.8 | 0.00 | 0.00 | 0.00 | 95 | 1017.0 |
| 20260504014901 | 9 | 19 | 3.2 | 4.8 | 0.00 | 0.00 | 0.00 | 95 | 1017.0 |
| 20260504014401 | 9 | 12 | 3.2 | 4.8 | 0.00 | 0.00 | 0.00 | 95 | 1016.9 |
| 20260504013904 | 9 | 0 | 3.2 | 4.8 | 0.00 | 0.00 | 0.00 | 94 | 1016.9 |
| 20260504013404 | 10 | 326 | 0.0 | 0.0 | 0.00 | 0.00 | 0.00 | 95 | 1016.9 |
| 20260504012905 | 10 | 326 | 0.0 | 0.0 | 0.00 | 0.00 | 0.00 | 95 | 1017.0 |
| 20260504012404 | 10 | 326 | 0.0 | 0.0 | 0.00 | 0.00 | 0.00 | 95 | 1017.0 |
| 20260504011904 | 10 | 326 | 0.0 | 0.0 | 0.00 | 0.00 | 0.00 | 95 | 1017.0 |
| 20260504011401 | 10 | 326 | 0.0 | 1.6 | 0.00 | 0.00 | 0.00 | 95 | 1017.0 |
| 20260504010904 | 10 | 326 | 1.6 | 4.8 | 0.00 | 0.00 | 0.00 | 94 | 1017.0 |
| 20260504010404 | 10 | 326 | 1.6 | 4.8 | 0.00 | 0.00 | 0.00 | 94 | 1017.0 |
| 20260504005901 | 10 | 335 | 0.0 | 0.0 | 0.00 | 0.00 | 0.00 | 94 | 1016.8 |
| 20260504005401 | 10 | 335 | 0.0 | 3.2 | 0.00 | 0.00 | 0.00 | 94 | 1016.8 |
| 20260504004901 | 10 | 335 | 0.0 | 0.0 | 0.00 | 0.00 | 0.00 | 94 | 1016.8 |
| 20260504004401 | 10 | 335 | 0.0 | 0.0 | 0.00 | 0.00 | 0.00 | 94 | 1016.7 |
| 20260504003901 | 10 | 335 | 0.0 | 0.0 | 0.00 | 0.00 | 0.00 | 94 | 1016.7 |
| 20260504003404 | 10 | 335 | 0.0 | 0.0 | 0.00 | 0.00 | 0.00 | 94 | 1016.7 |
| 20260504002902 | 10 | 335 | 0.0 | 0.0 | 0.00 | 0.00 | 0.00 | 93 | 1016.8 |
| 20260504002401 | 10 | 335 | 0.0 | 0.0 | 0.00 | 0.00 | 0.00 | 93 | 1016.8 |
| 20260504001905 | 10 | 335 | 0.0 | 0.0 | 0.00 | 0.00 | 0.00 | 93 | 1016.8 |
| 20260504001404 | 11 | 335 | 0.0 | 0.0 | 0.00 | 0.00 | 0.00 | 93 | 1017.0 |
| 20260504000901 | 11 | 335 | 0.0 | 0.0 | 0.00 | 0.00 | 0.00 | 93 | 1017.0 |
| 20260504000404 | 10 | 335 | 0.0 | 0.0 | 0.00 | 0.00 | 0.00 | 93 | 1017.0 |
| 20260503235902 | 10 | 335 | 0.0 | 0.0 | 0.00 | 0.00 | 0.00 | 93 | 1017.2 |
| 20260503235404 | 10 | 335 | 0.0 | 0.0 | 0.00 | 0.00 | 0.00 | 93 | 1017.2 |
| 20260503234904 | 11 | 335 | 0.0 | 0.0 | 0.00 | 0.00 | 0.00 | 93 | 1017.2 |
| 20260503234404 | 11 | 335 | 0.0 | 0.0 | 0.00 | 0.00 | 0.00 | 93 | 1017.3 |
| 20260503233904 | 11 | 335 | 0.0 | 0.0 | 0.00 | 0.00 | 0.00 | 93 | 1017.3 |
| 20260503233404 | 11 | 335 | 0.0 | 0.0 | 0.00 | 0.00 | 0.00 | 93 | 1017.3 |
| 20260503232904 | 11 | 335 | 0.0 | 0.0 | 0.00 | 0.00 | 0.00 | 92 | 1017.4 |
| 20260503232405 | 11 | 335 | 0.0 | 0.0 | 0.00 | 0.00 | 0.00 | 92 | 1017.4 |
| 20260503231904 | 11 | 335 | 0.0 | 0.0 | 0.00 | 0.00 | 0.00 | 92 | 1017.4 |
| 20260503231404 | 11 | 335 | 0.0 | 0.0 | 0.00 | 0.00 | 0.00 | 92 | 1017.5 |
| 20260503230904 | 11 | 335 | 0.0 | 0.0 | 0.00 | 0.00 | 0.00 | 92 | 1017.5 |
| 20260503230404 | 11 | 335 | 0.0 | 0.0 | 0.00 | 0.00 | 0.00 | 92 | 1017.5 |
| 20260503225902 | 11 | 335 | 0.0 | 3.2 | 0.00 | 0.00 | 0.00 | 92 | 1017.6 |
| 20260503225401 | 11 | 335 | 1.6 | 3.2 | 0.00 | 0.00 | 0.00 | 92 | 1017.6 |
| 20260503224904 | 11 | 335 | 0.0 | 0.0 | 0.00 | 0.00 | 0.00 | 92 | 1017.6 |
| 20260503224401 | 11 | 335 | 0.0 | 0.0 | 0.00 | 0.00 | 0.00 | 91 | 1017.6 |
| 20260503223901 | 11 | 335 | 0.0 | 0.0 | 0.00 | 0.00 | 0.00 | 91 | 1017.6 |
| 20260503223401 | 11 | 335 | 0.0 | 3.2 | 0.00 | 0.00 | 0.00 | 91 | 1017.6 |
| 20260503222901 | 11 | 335 | 1.6 | 4.8 | 0.00 | 0.00 | 0.00 | 91 | 1017.6 |
| 20260503222401 | 12 | 355 | 3.2 | 3.2 | 0.00 | 0.00 | 0.00 | 90 | 1017.6 |
| 20260503221904 | 12 | 355 | 1.6 | 3.2 | 0.00 | 0.00 | 0.00 | 90 | 1017.6 |
| 20260503221401 | 12 | 0 | 0.0 | 3.2 | 0.00 | 0.00 | 0.00 | 90 | 1017.6 |
| 20260503220901 | 12 | 5 | 0.0 | 1.6 | 0.00 | 0.00 | 0.00 | 90 | 1017.6 |
| 20260503220404 | 12 | 5 | 0.0 | 3.2 | 0.00 | 0.00 | 0.00 | 90 | 1017.6 |
| 20260503215901 | 13 | 5 | 0.0 | 0.0 | 0.00 | 0.00 | 0.00 | 90 | 1017.6 |
| 20260503215404 | 12 | 5 | 0.0 | 0.0 | 0.00 | 0.00 | 0.00 | 89 | 1017.6 |
| 20260503214901 | 13 | 5 | 0.0 | 0.0 | 0.00 | 0.00 | 0.00 | 89 | 1017.6 |
| 20260503214401 | 13 | 5 | 0.0 | 0.0 | 0.00 | 0.00 | 0.00 | 89 | 1017.6 |
| 20260503213905 | 12 | 5 | 0.0 | 0.0 | 0.00 | 0.00 | 0.00 | 88 | 1017.6 |
| 20260503213404 | 12 | 5 | 0.0 | 0.0 | 0.00 | 0.00 | 0.00 | 87 | 1017.6 |
| 20260503212904 | 13 | 5 | 0.0 | 0.0 | 0.00 | 0.00 | 0.00 | 87 | 1017.6 |
| 20260503212401 | 13 | 5 | 0.0 | 0.0 | 0.00 | 0.00 | 0.00 | 87 | 1017.6 |
| 20260503211904 | 13 | 5 | 0.0 | 0.0 | 0.00 | 0.00 | 0.00 | 88 | 1017.6 |
| 20260503211404 | 13 | 5 | 0.0 | 1.6 | 0.00 | 0.00 | 0.00 | 88 | 1017.6 |
| 20260503210904 | 13 | 5 | 0.0 | 0.0 | 0.00 | 0.00 | 0.00 | 88 | 1017.6 |
| 20260503210404 | 13 | 5 | 0.0 | 0.0 | 0.00 | 0.00 | 0.00 | 87 | 1017.6 |
| 20260503205904 | 13 | 5 | 0.0 | 3.2 | 0.00 | 0.00 | 0.00 | 87 | 1017.6 |
| 20260503205404 | 13 | 5 | 3.2 | 3.2 | 0.00 | 0.00 | 0.00 | 86 | 1017.6 |
| 20260503204904 | 13 | 5 | 0.0 | 0.0 | 0.00 | 0.00 | 0.00 | 85 | 1017.6 |
| 20260503204404 | 14 | 5 | 0.0 | 0.0 | 0.00 | 0.00 | 0.00 | 85 | 1017.4 |
| 20260503203904 | 14 | 5 | 0.0 | 0.0 | 0.00 | 0.00 | 0.00 | 85 | 1017.4 |
| 20260503203400 | 15 | 5 | 0.0 | 0.0 | 0.00 | 0.00 | 0.00 | 85 | 1017.4 |
| 20260503202900 | 15 | 5 | 0.0 | 0.0 | 0.00 | 0.00 | 0.00 | 84 | 1017.5 |
| 20260503202400 | 15 | 5 | 0.0 | 0.0 | 0.00 | 0.00 | 0.00 | 84 | 1017.5 |
| 20260503201903 | 15 | 5 | 0.0 | 0.0 | 0.00 | 0.00 | 0.00 | 84 | 1017.5 |
| 20260503201400 | 15 | 5 | 0.0 | 0.0 | 0.00 | 0.00 | 0.00 | 83 | 1017.4 |
| 20260503200900 | 15 | 5 | 0.0 | 0.0 | 0.00 | 0.00 | 0.00 | 83 | 1017.4 |
| 20260503200403 | 15 | 5 | 0.0 | 0.0 | 0.00 | 0.00 | 0.00 | 82 | 1017.4 |
| 20260503195900 | 15 | 5 | 0.0 | 0.0 | 0.00 | 0.00 | 0.00 | 82 | 1017.3 |
| 20260503195401 | 15 | 5 | 0.0 | 0.0 | 0.00 | 0.00 | 0.00 | 81 | 1017.3 |
| 20260503194903 | 15 | 5 | 0.0 | 0.0 | 0.00 | 0.00 | 0.00 | 81 | 1017.3 |
| 20260503194404 | 16 | 5 | 0.0 | 3.2 | 0.00 | 0.00 | 0.00 | 79 | 1017.2 |
| 20260503193900 | 16 | 5 | 0.0 | 0.0 | 0.00 | 0.00 | 0.00 | 80 | 1017.2 |
| 20260503193400 | 16 | 5 | 0.0 | 0.0 | 0.00 | 0.00 | 0.00 | 79 | 1017.2 |
| 20260503192903 | 16 | 5 | 0.0 | 0.0 | 0.00 | 0.00 | 0.00 | 79 | 1017.1 |
| 20260503192400 | 16 | 5 | 0.0 | 1.6 | 0.00 | 0.00 | 0.00 | 79 | 1017.1 |
| 20260503191903 | 16 | 5 | 0.0 | 1.6 | 0.00 | 0.00 | 0.00 | 78 | 1017.1 |
| 20260503191403 | 16 | 5 | 0.0 | 6.4 | 0.00 | 0.00 | 0.00 | 78 | 1017.1 |
| 20260503190900 | 16 | 23 | 1.6 | 4.8 | 0.00 | 0.00 | 0.00 | 77 | 1017.1 |
| 20260503190403 | 16 | 30 | 1.6 | 4.8 | 0.00 | 0.00 | 0.00 | 77 | 1017.1 |
| 20260503185904 | 17 | 5 | 0.0 | 4.8 | 0.00 | 0.00 | 0.00 | 77 | 1017.1 |
| 20260503185403 | 17 | 0 | 0.0 | 3.2 | 0.00 | 0.00 | 0.00 | 77 | 1017.1 |
| 20260503184903 | 17 | 355 | 1.6 | 4.8 | 0.00 | 0.00 | 0.00 | 76 | 1017.1 |
| 20260503184400 | 17 | 342 | 3.2 | 4.8 | 0.00 | 0.00 | 0.00 | 76 | 1016.9 |
| 20260503183900 | 17 | 16 | 1.6 | 6.4 | 0.00 | 0.00 | 0.00 | 76 | 1016.9 |
| 20260503183403 | 17 | 26 | 4.8 | 6.4 | 0.00 | 0.00 | 0.00 | 76 | 1016.9 |
| 20260503182903 | 17 | 350 | 3.2 | 3.2 | 0.00 | 0.00 | 0.00 | 75 | 1016.6 |
| 20260503182400 | 17 | 309 | 0.0 | 4.8 | 0.00 | 0.00 | 0.00 | 74 | 1016.6 |
| 20260503181903 | 17 | 314 | 1.6 | 8.0 | 0.00 | 0.00 | 0.00 | 74 | 1016.6 |
| 20260503181403 | 17 | 286 | 1.6 | 11.3 | 0.00 | 0.00 | 0.00 | 74 | 1016.6 |
| 20260503180903 | 17 | 306 | 6.4 | 12.9 | 0.00 | 0.00 | 0.00 | 74 | 1016.6 |
| 20260503180403 | 17 | 286 | 4.8 | 11.3 | 0.00 | 0.00 | 0.00 | 74 | 1016.6 |
| 20260503175901 | 17 | 278 | 8.0 | 12.9 | 0.00 | 0.00 | 0.00 | 73 | 1016.3 |
| 20260503175403 | 18 | 312 | 6.4 | 11.3 | 0.00 | 0.00 | 0.00 | 72 | 1016.3 |
| 20260503174903 | 18 | 259 | 9.7 | 16.1 | 0.00 | 0.00 | 0.00 | 71 | 1016.3 |
| 20260503174403 | 18 | 263 | 16.1 | 16.1 | 0.00 | 0.00 | 0.00 | 71 | 1016.0 |
| 20260503173903 | 18 | 267 | 11.3 | 16.1 | 0.00 | 0.00 | 0.00 | 70 | 1016.0 |
| 20260503173403 | 19 | 267 | 11.3 | 17.7 | 0.00 | 0.00 | 0.00 | 69 | 1016.0 |
| 20260503172900 | 19 | 277 | 12.9 | 14.5 | 0.00 | 0.00 | 0.00 | 68 | 1015.6 |
| 20260503172403 | 19 | 262 | 9.7 | 16.1 | 0.00 | 0.00 | 0.00 | 67 | 1015.6 |
| 20260503171900 | 20 | 270 | 11.3 | 16.1 | 0.00 | 0.00 | 0.00 | 65 | 1015.6 |
| 20260503171400 | 20 | 267 | 11.3 | 16.1 | 0.00 | 0.00 | 0.00 | 64 | 1015.5 |
| 20260503170903 | 20 | 261 | 6.4 | 12.9 | 0.00 | 0.00 | 0.00 | 62 | 1015.5 |
| 20260503170403 | 20 | 259 | 9.7 | 14.5 | 0.00 | 0.00 | 0.00 | 61 | 1015.5 |
| 20260503150903 | 21 | 304 | 9.7 | 22.5 | 0.00 | 0.00 | 0.00 | 59 | 1016.5 |
| 20260503150400 | 21 | 286 | 16.1 | 24.1 | 0.00 | 0.00 | 0.00 | 58 | 1016.5 |
| 20260503131402 | 22 | 288 | 17.7 | 27.4 | 0.00 | 0.00 | 0.00 | 45 | 1017.2 |
| 20260503130859 | 22 | 281 | 9.7 | 24.1 | 0.00 | 0.00 | 0.00 | 45 | 1017.2 |
| 20260503130402 | 22 | 298 | 12.9 | 30.6 | 0.00 | 0.00 | 0.00 | 46 | 1017.2 |
| 20260503110402 | 22 | 306 | 17.7 | 22.5 | 0.00 | 0.00 | 0.00 | 50 | 1017.1 |
| 20260503090358 | 21 | 283 | 9.7 | 17.7 | 0.00 | 0.00 | 0.00 | 52 | 1018.2 |
| 20260503081401 | 20 | 331 | 0.0 | 6.4 | 0.00 | 0.00 | 0.00 | 62 | 1018.6 |
| 20260503080901 | 20 | 12 | 0.0 | 6.4 | 0.00 | 0.00 | 0.00 | 63 | 1018.6 |
| 20260503080401 | 19 | 288 | 0.0 | 8.0 | 0.00 | 0.00 | 0.00 | 65 | 1018.6 |
| 20260503072901 | 17 | 315 | 0.0 | 3.2 | 0.00 | 0.00 | 0.00 | 68 | 1018.8 |
| 20260503072401 | 17 | 314 | 1.6 | 3.2 | 0.00 | 0.00 | 0.00 | 67 | 1018.8 |
| 20260503071901 | 17 | 81 | 0.0 | 3.2 | 0.00 | 0.00 | 0.00 | 68 | 1018.8 |
| 20260503071402 | 17 | 82 | 1.6 | 4.8 | 0.00 | 0.00 | 0.00 | 67 | 1019.0 |
| 20260503070858 | 17 | 76 | 0.0 | 3.2 | 0.00 | 0.00 | 0.00 | 70 | 1019.0 |
| 20260503070401 | 16 | 69 | 0.0 | 1.6 | 0.00 | 0.00 | 0.00 | 70 | 1019.0 |
| 20260503054901 | 11 | 302 | 0.0 | 0.0 | 0.00 | 0.00 | 0.00 | 87 | 1018.8 |
| 20260503054401 | 10 | 302 | 0.0 | 0.0 | 0.00 | 0.00 | 0.00 | 87 | 1018.7 |
| 20260503053858 | 10 | 302 | 0.0 | 0.0 | 0.00 | 0.00 | 0.00 | 88 | 1018.7 |
| 20260503053358 | 10 | 302 | 0.0 | 0.0 | 0.00 | 0.00 | 0.00 | 88 | 1018.7 |
| 20260503052858 | 10 | 302 | 0.0 | 0.0 | 0.00 | 0.00 | 0.00 | 88 | 1018.6 |
| 20260503052401 | 10 | 302 | 0.0 | 0.0 | 0.00 | 0.00 | 0.00 | 90 | 1018.6 |
| 20260503051858 | 10 | 302 | 0.0 | 0.0 | 0.00 | 0.00 | 0.00 | 91 | 1018.6 |
| 20260503051358 | 8 | 302 | 0.0 | 0.0 | 0.00 | 0.00 | 0.00 | 92 | 1018.6 |
| 20260503050859 | 8 | 302 | 0.0 | 0.0 | 0.00 | 0.00 | 0.00 | 92 | 1018.6 |
| 20260503050401 | 7 | 302 | 0.0 | 0.0 | 0.00 | 0.00 | 0.00 | 92 | 1018.6 |
| 20260503045858 | 7 | 302 | 0.0 | 0.0 | 0.00 | 0.00 | 0.00 | 92 | 1018.7 |
| 20260503045358 | 7 | 302 | 0.0 | 0.0 | 0.00 | 0.00 | 0.00 | 92 | 1018.7 |
| 20260503044901 | 7 | 302 | 0.0 | 3.2 | 0.00 | 0.00 | 0.00 | 92 | 1018.7 |
| 20260503044401 | 7 | 302 | 3.2 | 4.8 | 0.00 | 0.00 | 0.00 | 92 | 1018.7 |
| 20260503043858 | 6 | 302 | 1.6 | 4.8 | 0.00 | 0.00 | 0.00 | 92 | 1018.7 |
| 20260503043401 | 6 | 304 | 3.2 | 4.8 | 0.00 | 0.00 | 0.00 | 92 | 1018.7 |
| 20260503042858 | 6 | 304 | 1.6 | 4.8 | 0.00 | 0.00 | 0.00 | 92 | 1018.6 |
| 20260503042401 | 6 | 304 | 0.0 | 0.0 | 0.00 | 0.00 | 0.00 | 92 | 1018.6 |
| 20260503041901 | 6 | 304 | 0.0 | 0.0 | 0.00 | 0.00 | 0.00 | 92 | 1018.6 |
| 20260503041358 | 6 | 304 | 0.0 | 0.0 | 0.00 | 0.00 | 0.00 | 92 | 1018.6 |
| 20260503040858 | 6 | 304 | 0.0 | 0.0 | 0.00 | 0.00 | 0.00 | 92 | 1018.6 |
| 20260503040358 | 6 | 304 | 0.0 | 0.0 | 0.00 | 0.00 | 0.00 | 92 | 1018.6 |
| 20260503035901 | 6 | 304 | 0.0 | 0.0 | 0.00 | 0.00 | 0.00 | 92 | 1018.6 |
| 20260503035357 | 6 | 304 | 0.0 | 0.0 | 0.00 | 0.00 | 0.00 | 92 | 1018.6 |
| 20260503034900 | 6 | 304 | 0.0 | 0.0 | 0.00 | 0.00 | 0.00 | 92 | 1018.6 |
| 20260503034357 | 6 | 304 | 0.0 | 0.0 | 0.00 | 0.00 | 0.00 | 92 | 1018.6 |
| 20260503033900 | 6 | 304 | 0.0 | 3.2 | 0.00 | 0.00 | 0.00 | 92 | 1018.6 |